伽利略0204星导航星座 (GSAT0204 (GALILEO 8))

导读

GALILEO 8是欧洲空间局(ESA)发射的伽利略系列导航卫星,于2015年3月27日发射入轨,属于全球伽利略卫星导航系统的组网卫星,旨在为全球用户提供高精度、高可靠性的定位、导航与授时服务,推动欧洲在卫星导航领域实现自主可控,完善全球卫星导航服务架构。

Basic Information
目录编号:
40545
目录名称:
GALILEO 8 (264)
国际标识:
2015-017B
轨道中心:
EARTH
卫星名称:
伽利略0204星
卫星全名:
伽利略0204星导航星座 (GSAT0204 (GALILEO 8))
卫星状态:
在轨 (已飞行4096 天)
发射日期:
2015-03-27 UTC
国别 :
(ESA)
星等 :
--
Orbit Information
数据来源 国际轨道数据 AOE轨道数据
星历时间 2026-06-11T22:28:01+0800
1天前
查看轨道信息
2026-06-12T10:00:00+0800
1天前
查看轨道信息
半长轴 29600.135km 29600.031km
偏心率 0.0001892 0.0002075
轨道倾角 56.798° 56.796°
近地点辐角 248.986° 250.649°
升交点赤经 341.766° 341.754°
平近点角 111.007° 44.274°
近地点 23216.397km 23215.751km
远地点 23227.599km 23228.037km
周期 844.696分钟 844.691分钟
每日圈数 1.704756 1.704765
Detailed Information
平衡模式:
三轴稳定
覆盖范围:
全球
运营商:
欧盟空间计划局
运营商所在国:
法国大都会
使用方式:
暂无
Satellite Introduction
伽利略定位系统(Galileo)是一个全球导航卫星系统,于2016年投入使用由欧盟通过ESA创建,由欧盟空间计划局(EUSPA)运营。该系统有两个地面操控站,并且在高纬度地区提供比其他系统更好的定位服务。该卫星仍在工作。
2D Orbit Map
3D Orbit Map
Orbit Altitude Analysis Chart
Orbit Inclination Analysis Chart
Orbit Comprehensive Analysis Chart
View Comprehensive Chart